Regional Weather Roundup
Issued by NWS

Home | Current Version | Previous Version | Graphics & Text | Print | Product List | Glossary On
Versions: 1 2 3 4 5 6 7 8 9 10 11 12 13 14 15 16 17 18 19 20 21 22 23 24 25 26 27 28
000
ASUS45 KCYS 301310
RWRWY

WYOMING REGIONAL WEATHER ROUNDUP
NATIONAL WEATHER SERVICE CHEYENNE WY
700 AM MDT MON MAY 30 2016

NOTE:  "FAIR" INDICATES FEW OR NO CLOUDS BELOW 12,000 FEET
WITH NO SIGNIFICANT WEATHER AND/OR OBSTRUCTIONS TO VISIBILITY.

WYZ001-301400-
YELLOWSTONE NATIONAL PARK

CITY           SKY/WX    TMP DP  RH WIND       PRES   REMARKS
LK YELLOWSTONE   N/A     39  36  89 CALM      30.18S
W YELLOWSTONE  NOT AVBL

$$
WYZ002>013-054>058-071-098>099-301400-
NORTHERN WYOMING

CITY           SKY/WX    TMP DP  RH WIND       PRES   REMARKS
JACKSON        FAIR      41  37  87 SE6       30.12F
CODY           PTSUNNY   52  43  71 N5        30.04S
GREYBULL       CLOUDY    59  42  53 W16       29.97R
WORLAND        PTSUNNY   59  42  53 NW10      29.98R
SHERIDAN       FAIR      54  46  74 N13G21    29.99R
BUFFALO        FAIR      52  43  71 N28G40    29.96R
GILLETTE       FAIR      58  43  57 W18G25    29.91R
HULETT         PTSUNNY   61  43  51 S13       29.91S
NEWCASTLE      FAIR      57  43  58 SE12      29.97S

$$
WYZ014>020-022>026-101>103-301400-
CENTRAL WYOMING

CITY           SKY/WX    TMP DP  RH WIND       PRES   REMARKS
BIG PINEY      FAIR      41  38  89 NW3       30.18R
PINEDALE       FAIR      37  37 100 NW3       30.18S
DUBOIS         FAIR      43  34  70 NW14      30.12S
LANDER         FAIR      53  39  59 SW5       30.04R
RIVERTON       FAIR      56  37  49 NW10      30.05R
CASPER         FAIR      54  40  59 SW12      30.02S
DOUGLAS          N/A    N/A N/A N/A MISG      30.00S

$$
WYZ021-027>030-104>119-301400-
SOUTHERN WYOMING

CITY           SKY/WX    TMP DP  RH WIND       PRES   REMARKS
EVANSTON       PTSUNNY   43  39  86 SW9       30.20R
KEMMERER         N/A     45  37  76 NW6       30.20S
FORT BRIDGER   SUNNY     46  43  87 W9        30.21R
ROCK SPRINGS   FAIR      45  39  79 NW3       30.18R
DIXON          FAIR      41  39  90 E3        30.20F
RAWLINS        CLOUDY    46  37  71 SW9       30.15R
SARATOGA       FAIR      43  36  75 S5        30.18S
LARAMIE        FAIR      45  38  76 CALM      30.13F
CHEYENNE       FAIR      52  41  66 W9        30.07F
TORRINGTON     FAIR      52  45  77 CALM      29.97F
PINE BLUFFS    FAIR      45  45 100 CALM      30.05S

$$




USA.gov is the U.S. government's official web portal to all federal, state and local government web resources and services.